Location: Habighorst
(52.7089°N, 10.2278°E)
Time: 00:10:19
(UTC+00:00)

CBERS-1 - Pass Details

Date: 13 January 2026
Orbit: 765 x 772 km, 98.9° (Epoch: 9 February)

Event Time Altitude Azimuth Distance (km) Brightness Sun altitude
Rises 06:25:18 0° 12° (NNE) 3,247 7.1 -8.7°
Reaches altitude 10° 06:27:42 10° 6° (N) 2,316 6.3 -8.4°
Maximum altitude 06:32:29 43° 296° (WNW) 1,069 4.3 -7.7°
Drops below altitude 10° 06:37:15 10° 226° (SW) 2,302 6.3 -7.0°
Sets 06:39:38 0° 220° (SW) 3,225 7.1 -6.7°
